Location: Hamilton
(37.7830°S, 175.2830°E)
Time: 17:21:33
(UTC+13:00)

HJ-1C - Pass Details

Date: 24 January 2019
Orbit: 438 x 450 km, 97.2° (Epoch: 20 February)

Event Time Altitude Azimuth Distance (km) Brightness Sun altitude
Rises 21:00:09 0° 164° (SSE) 2,495 7.4 -4.7°
Reaches altitude 10° 21:02:15 10° 159° (SSE) 1,610 6.3 -5.0°
Maximum altitude 21:05:38 54° 80° (E) 559 3.5 -5.6°
Drops below altitude 10° 21:08:58 10° 2° (N) 1,576 5.9 -6.2°
Sets 21:11:00 0° 357° (N) 2,436 6.8 -6.5°
